Time,TemperatureF,DewpointF,PressureIn,WindDirection,WindDirectionDegrees,WindSpeedMPH,WindSpeedGustMPH,Humidity,HourlyPrecipIn,Conditions,Clouds,dailyrainin,SoftwareType,DateUTC
2013-04-20 00:14:00,48.7,47.0,29.75,NNW,333,1.0,5.0,95,0.06,,,1.36,weatherlink.com 1.10,2013-04-20 04:14:00,
2013-04-20 00:29:00,47.6,46.0,29.73,NNW,331,2.0,4.0,94,0.04,,,1.36,weatherlink.com 1.10,2013-04-20 04:29:00,
2013-04-20 00:44:00,46.5,45.0,29.73,NW,309,3.0,5.0,93,0.04,,,1.37,weatherlink.com 1.10,2013-04-20 04:44:00,
2013-04-20 00:59:00,46.1,44.0,29.73,NW,307,4.0,5.0,92,0.03,,,1.38,weatherlink.com 1.10,2013-04-20 04:59:00,
2013-04-20 01:14:00,45.6,44.0,29.75,NNW,327,2.0,5.0,93,0.03,,,1.39,weatherlink.com 1.10,2013-04-20 05:14:00,
2013-04-20 01:29:00,45.5,43.0,29.75,NW,311,2.0,4.0,92,0.04,,,1.40,weatherlink.com 1.10,2013-04-20 05:29:00,
2013-04-20 01:44:00,45.4,43.0,29.76,NW,325,3.0,4.0,92,0.03,,,1.40,weatherlink.com 1.10,2013-04-20 05:44:00,
2013-04-20 01:59:00,45.3,43.0,29.75,NNW,327,1.0,4.0,93,0.02,,,1.40,weatherlink.com 1.10,2013-04-20 05:59:00,
2013-04-20 02:14:00,45.3,43.0,29.75,NNW,332,1.0,3.0,93,0.01,,,0.00,weatherlink.com 1.10,2013-04-20 06:14:00,
2013-04-20 02:29:00,45.1,44.0,29.75,NW,325,2.0,3.0,94,0.02,,,0.02,weatherlink.com 1.10,2013-04-20 06:29:00,
2013-04-20 02:44:00,44.8,43.0,29.76,NW,315,1.0,3.0,94,0.02,,,0.02,weatherlink.com 1.10,2013-04-20 06:44:00,
2013-04-20 02:59:00,44.6,43.0,29.78,WNW,298,1.0,2.0,95,0.02,,,0.02,weatherlink.com 1.10,2013-04-20 06:59:00,
2013-04-20 03:14:00,44.5,43.0,29.78,NW,315,2.0,3.0,93,0.02,,,0.02,weatherlink.com 1.10,2013-04-20 07:14:00,
2013-04-20 03:29:00,44.4,43.0,29.77,NNW,334,1.0,2.0,94,0.00,,,0.02,weatherlink.com 1.10,2013-04-20 07:29:00,
2013-04-20 03:45:00,44.3,42.0,29.78,NW,325,1.0,3.0,93,0.00,,,0.02,weatherlink.com 1.10,2013-04-20 07:45:00,
2013-04-20 04:00:00,44.2,42.0,29.79,NNW,328,2.0,3.0,91,0.01,,,0.03,weatherlink.com 1.10,2013-04-20 08:00:00,
2013-04-20 04:15:00,44.7,41.0,29.80,NNW,334,1.0,3.0,87,0.01,,,0.03,weatherlink.com 1.10,2013-04-20 08:15:00,
2013-04-20 04:30:00,44.7,41.0,29.81,West,280,1.0,4.0,85,0.01,,,0.03,weatherlink.com 1.10,2013-04-20 08:30:00,
2013-04-20 04:45:00,44.8,40.0,29.82,WNW,301,2.0,3.0,82,0.01,,,0.03,weatherlink.com 1.10,2013-04-20 08:45:00,
2013-04-20 05:00:00,44.8,40.0,29.84,WNW,295,1.0,4.0,82,0.00,,,0.03,weatherlink.com 1.10,2013-04-20 09:00:00,
2013-04-20 05:15:00,44.9,40.0,29.85,WNW,290,2.0,4.0,82,0.00,,,0.03,weatherlink.com 1.10,2013-04-20 09:15:00,
2013-04-20 05:30:00,45.0,39.0,29.85,NW,320,2.0,4.0,80,0.00,,,0.03,weatherlink.com 1.10,2013-04-20 09:30:00,
2013-04-20 05:45:00,44.8,37.0,29.85,WNW,298,2.0,4.0,75,0.00,,,0.03,weatherlink.com 1.10,2013-04-20 09:45:00,
2013-04-20 06:00:00,44.4,37.0,29.86,NW,304,1.0,3.0,74,0.00,,,0.03,weatherlink.com 1.10,2013-04-20 10:00:00,
2013-04-20 06:15:00,43.9,36.0,29.87,NW,316,2.0,3.0,74,0.00,,,0.03,weatherlink.com 1.10,2013-04-20 10:15:00,
2013-04-20 06:30:00,43.9,36.0,29.87,WNW,301,2.0,3.0,73,0.00,,,0.03,weatherlink.com 1.10,2013-04-20 10:30:00,
2013-04-20 06:45:00,43.7,36.0,29.88,NW,306,1.0,4.0,73,0.00,,,0.03,weatherlink.com 1.10,2013-04-20 10:45:00,
2013-04-20 07:00:00,43.6,36.0,29.89,WNW,295,2.0,3.0,74,0.00,,,0.03,weatherlink.com 1.10,2013-04-20 11:00:00,
2013-04-20 07:15:00,43.7,36.0,29.90,WNW,283,2.0,4.0,75,0.00,,,0.03,weatherlink.com 1.10,2013-04-20 11:15:00,
2013-04-20 07:30:00,43.8,36.0,29.90,WNW,282,2.0,10.0,73,0.00,,,0.03,weatherlink.com 1.10,2013-04-20 11:30:00,
2013-04-20 07:45:00,43.8,35.0,29.91,WNW,287,2.0,4.0,72,0.00,,,0.03,weatherlink.com 1.10,2013-04-20 11:45:00,
2013-04-20 08:00:00,43.9,35.0,29.93,WNW,287,2.0,4.0,72,0.00,,,0.03,weatherlink.com 1.10,2013-04-20 12:00:00,
2013-04-20 08:15:00,43.9,36.0,29.93,WNW,284,2.0,5.0,75,0.00,,,0.03,weatherlink.com 1.10,2013-04-20 12:15:00,
2013-04-20 08:30:00,43.7,36.0,29.93,WSW,252,2.0,3.0,73,0.00,,,0.03,weatherlink.com 1.10,2013-04-20 12:30:00,
2013-04-20 08:45:00,43.7,35.0,29.94,NW,310,3.0,4.0,71,0.00,,,0.03,weatherlink.com 1.10,2013-04-20 12:45:00,
2013-04-20 09:00:00,43.1,35.0,29.95,WNW,289,4.0,5.0,72,0.00,,,0.03,weatherlink.com 1.10,2013-04-20 13:00:00,
2013-04-20 09:15:00,42.6,34.0,29.95,WNW,296,1.0,5.0,71,0.00,,,0.03,weatherlink.com 1.10,2013-04-20 13:15:00,
2013-04-20 09:30:00,42.6,34.0,29.97,WSW,253,3.0,4.0,71,0.00,,,0.03,weatherlink.com 1.10,2013-04-20 13:30:00,
2013-04-20 09:45:00,43.1,34.0,29.98,West,277,1.0,3.0,70,0.00,,,0.03,weatherlink.com 1.10,2013-04-20 13:45:00,
2013-04-20 10:00:00,44.3,34.0,29.99,WNW,292,1.0,4.0,68,0.00,,,0.03,weatherlink.com 1.10,2013-04-20 14:00:00,
2013-04-20 10:15:00,44.3,31.0,30.00,WNW,292,3.0,5.0,61,0.00,,,0.03,weatherlink.com 1.10,2013-04-20 14:15:00,
2013-04-20 10:31:00,45.7,32.0,30.00,WNW,285,2.0,5.0,59,0.00,,,0.03,weatherlink.com 1.10,2013-04-20 14:31:00,
2013-04-20 10:46:00,46.8,33.0,30.00,WSW,257,4.0,7.0,58,0.00,,,0.03,weatherlink.com 1.10,2013-04-20 14:46:00,
2013-04-20 11:01:00,48.1,31.0,30.01,NW,326,3.0,5.0,52,0.00,,,0.03,weatherlink.com 1.10,2013-04-20 15:01:00,
2013-04-20 11:16:00,48.3,31.0,30.02,WNW,285,5.0,6.0,52,0.00,,,0.03,weatherlink.com 1.10,2013-04-20 15:16:00,
2013-04-20 11:31:00,48.6,31.0,30.02,WNW,300,3.0,5.0,51,0.00,,,0.03,weatherlink.com 1.10,2013-04-20 15:31:00,
2013-04-20 11:46:00,49.3,31.0,30.02,WNW,292,3.0,6.0,49,0.00,,,0.03,weatherlink.com 1.10,2013-04-20 15:46:00,
2013-04-20 12:01:00,49.5,30.0,30.02,NW,304,3.0,7.0,48,0.00,,,0.03,weatherlink.com 1.10,2013-04-20 16:01:00,
2013-04-20 12:16:00,49.3,30.0,30.02,West,264,3.0,6.0,48,0.00,,,0.03,weatherlink.com 1.10,2013-04-20 16:16:00,
2013-04-20 12:31:00,50.4,30.0,30.01,WNW,296,3.0,7.0,46,0.00,,,0.03,weatherlink.com 1.10,2013-04-20 16:31:00,
2013-04-20 12:46:00,51.3,30.0,30.01,NW,315,3.0,8.0,45,0.00,,,0.03,weatherlink.com 1.10,2013-04-20 16:46:00,
2013-04-20 13:01:00,51.5,31.0,30.01,WNW,299,2.0,8.0,45,0.00,,,0.03,weatherlink.com 1.10,2013-04-20 17:01:00,
2013-04-20 13:16:00,51.7,30.0,30.01,WNW,295,6.0,9.0,43,0.00,,,0.03,weatherlink.com 1.10,2013-04-20 17:16:00,
2013-04-20 13:31:00,50.6,29.0,30.02,WNW,298,6.0,8.0,44,0.00,,,0.03,weatherlink.com 1.10,2013-04-20 17:31:00,
2013-04-20 13:46:00,51.8,29.0,30.01,WNW,299,4.0,6.0,42,0.00,,,0.03,weatherlink.com 1.10,2013-04-20 17:46:00,
2013-04-20 14:01:00,52.4,30.0,30.02,WNW,288,2.0,7.0,43,0.00,,,0.03,weatherlink.com 1.10,2013-04-20 18:01:00,
2013-04-20 14:16:00,52.5,30.0,30.02,NW,312,3.0,7.0,43,0.00,,,0.03,weatherlink.com 1.10,2013-04-20 18:16:00,
2013-04-20 14:31:00,52.1,31.0,30.02,WNW,300,4.0,7.0,45,0.00,,,0.03,weatherlink.com 1.10,2013-04-20 18:31:00,
2013-04-20 14:46:00,52.5,29.0,30.03,WNW,295,2.0,7.0,41,0.00,,,0.03,weatherlink.com 1.10,2013-04-20 18:46:00,
2013-04-20 15:01:00,52.4,31.0,30.03,NW,309,2.0,6.0,45,0.00,,,0.03,weatherlink.com 1.10,2013-04-20 19:01:00,
2013-04-20 15:16:00,52.8,30.0,30.03,NW,313,2.0,7.0,42,0.00,,,0.03,weatherlink.com 1.10,2013-04-20 19:16:00,
2013-04-20 15:31:00,53.2,30.0,30.03,West,261,3.0,8.0,41,0.00,,,0.03,weatherlink.com 1.10,2013-04-20 19:31:00,
2013-04-20 15:46:00,52.9,30.0,30.04,NW,321,3.0,8.0,42,0.00,,,0.03,weatherlink.com 1.10,2013-04-20 19:46:00,
2013-04-20 16:01:00,53.8,30.0,30.04,NW,317,4.0,5.0,40,0.00,,,0.03,weatherlink.com 1.10,2013-04-20 20:01:00,
2013-04-20 16:16:00,53.0,28.0,30.05,NNW,344,1.0,7.0,38,0.00,,,0.03,weatherlink.com 1.10,2013-04-20 20:16:00,
2013-04-20 16:31:00,53.6,29.0,30.06,NE,42,2.0,6.0,39,0.00,,,0.03,weatherlink.com 1.10,2013-04-20 20:31:00,
2013-04-20 16:46:00,53.5,29.0,30.07,WNW,303,1.0,6.0,39,0.00,,,0.03,weatherlink.com 1.10,2013-04-20 20:46:00,
2013-04-20 17:01:00,53.0,28.0,30.08,West,275,2.0,7.0,38,0.00,,,0.03,weatherlink.com 1.10,2013-04-20 21:01:00,
2013-04-20 17:16:00,53.4,29.0,30.08,NW,307,4.0,6.0,39,0.00,,,0.03,weatherlink.com 1.10,2013-04-20 21:16:00,
2013-04-20 17:31:00,53.1,28.0,30.09,NW,319,3.0,6.0,38,0.00,,,0.03,weatherlink.com 1.10,2013-04-20 21:31:00,
2013-04-20 17:46:00,52.8,29.0,30.11,NW,306,4.0,4.0,41,0.00,,,0.03,weatherlink.com 1.10,2013-04-20 21:46:00,
2013-04-20 18:01:00,51.8,29.0,30.11,NW,311,2.0,6.0,41,0.00,,,0.03,weatherlink.com 1.10,2013-04-20 22:01:00,
2013-04-20 18:16:00,51.0,28.0,30.12,WNW,287,3.0,7.0,42,0.00,,,0.03,weatherlink.com 1.10,2013-04-20 22:16:00,
2013-04-20 18:31:00,50.3,28.0,30.13,WNW,303,3.0,8.0,42,0.00,,,0.03,weatherlink.com 1.10,2013-04-20 22:31:00,
2013-04-20 18:46:00,49.7,28.0,30.14,WNW,295,2.0,5.0,43,0.00,,,0.03,weatherlink.com 1.10,2013-04-20 22:46:00,
2013-04-20 19:01:00,48.9,26.0,30.15,NW,310,3.0,5.0,41,0.00,,,0.03,weatherlink.com 1.10,2013-04-20 23:01:00,
2013-04-20 19:16:00,48.2,27.0,30.16,NW,312,2.0,3.0,44,0.00,,,0.03,weatherlink.com 1.10,2013-04-20 23:16:00,
2013-04-20 19:32:00,47.5,27.0,30.17,NW,304,2.0,4.0,45,0.00,,,0.03,weatherlink.com 1.10,2013-04-20 23:32:00,
2013-04-20 19:47:00,46.7,27.0,30.18,WNW,300,2.0,4.0,46,0.00,,,0.03,weatherlink.com 1.10,2013-04-20 23:47:00,
2013-04-20 20:02:00,46.2,26.0,30.19,NW,325,1.0,4.0,46,0.00,,,0.03,weatherlink.com 1.10,2013-04-21 00:02:00,
2013-04-20 20:17:00,45.5,26.0,30.21,NW,315,1.0,3.0,47,0.00,,,0.03,weatherlink.com 1.10,2013-04-21 00:17:00,
2013-04-20 20:32:00,45.1,26.0,30.21,NW,309,5.0,5.0,47,0.00,,,0.03,weatherlink.com 1.10,2013-04-21 00:32:00,
2013-04-20 20:47:00,44.8,26.0,30.23,NNW,327,2.0,4.0,48,0.00,,,0.03,weatherlink.com 1.10,2013-04-21 00:47:00,
2013-04-20 21:02:00,44.4,26.0,30.24,NW,313,1.0,4.0,49,0.00,,,0.03,weatherlink.com 1.10,2013-04-21 01:02:00,
2013-04-20 21:17:00,44.1,26.0,30.26,WNW,296,2.0,3.0,49,0.00,,,0.03,weatherlink.com 1.10,2013-04-21 01:17:00,
2013-04-20 21:32:00,43.5,26.0,30.27,NW,317,1.0,2.0,51,0.00,,,0.03,weatherlink.com 1.10,2013-04-21 01:32:00,
2013-04-20 21:47:00,43.1,26.0,30.28,NW,321,1.0,3.0,52,0.00,,,0.03,weatherlink.com 1.10,2013-04-21 01:47:00,
2013-04-20 22:02:00,42.7,26.0,30.28,NW,325,1.0,3.0,53,0.00,,,0.03,weatherlink.com 1.10,2013-04-21 02:02:00,
2013-04-20 22:17:00,42.4,27.0,30.29,NW,316,2.0,2.0,54,0.00,,,0.03,weatherlink.com 1.10,2013-04-21 02:17:00,
2013-04-20 22:32:00,41.9,27.0,30.30,WNW,302,1.0,3.0,56,0.00,,,0.03,weatherlink.com 1.10,2013-04-21 02:32:00,
2013-04-20 22:47:00,41.4,27.0,30.30,NNW,332,1.0,2.0,57,0.00,,,0.03,weatherlink.com 1.10,2013-04-21 02:47:00,
2013-04-20 23:02:00,41.3,26.0,30.31,NW,312,1.0,2.0,56,0.00,,,0.03,weatherlink.com 1.10,2013-04-21 03:02:00,
2013-04-20 23:17:00,41.2,26.0,30.31,NW,318,1.0,2.0,54,0.00,,,0.03,weatherlink.com 1.10,2013-04-21 03:17:00,
2013-04-20 23:32:00,40.8,26.0,30.32,NW,319,2.0,2.0,55,0.00,,,0.03,weatherlink.com 1.10,2013-04-21 03:32:00,
2013-04-20 23:47:00,40.6,25.0,30.32,NW,313,2.0,2.0,55,0.00,,,0.03,weatherlink.com 1.10,2013-04-21 03:47:00,